owner,sensor,date,latitude,longitude,vertical_datum,sea_water_practical_salinity,qcFlag 
SCCF RECON,ioos:station:SCCF:16:1,2009-01-01T00:00:00Z,26.4345,-81.9647,2.314,35.21,1111122 
SCCF RECON,ioos:station:SCCF:16:1,2009-01-01T01:00:00Z,26.4345,-81.9647,2.265,35.18,1111122 
SCCF RECON,ioos:station:SCCF:16:1,2009-01-01T02:00:00Z,26.4345,-81.9647,2.268,35.07,1111122 
SCCF RECON,ioos:station:SCCF:16:1,2009-01-01T03:00:00Z,26.4345,-81.9647,2.314,34.74,1111122 
SCCF RECON,ioos:station:SCCF:16:1,2009-01-01T04:00:00Z,26.4345,-81.9647,2.419,35.08,1111122 
SCCF RECON,ioos:station:SCCF:16:1,2009-01-01T05:00:00Z,26.4345,-81.9647,2.561,35.15,1111122 
SCCF RECON,ioos:station:SCCF:16:1,2009-01-01T06:00:00Z,26.4345,-81.9647,2.558,35.12,1111122 
SCCF RECON,ioos:station:SCCF:16:1,2009-01-01T07:00:00Z,26.4345,-81.9647,2.546,34.83,1111122 
SCCF RECON,ioos:station:SCCF:16:1,2009-01-01T08:00:00Z,26.4345,-81.9647,2.531,34.92,1111122 
SCCF RECON,ioos:station:SCCF:16:1,2009-01-01T09:00:00Z,26.4345,-81.9647,2.458,34.9,1111122 
SCCF RECON,ioos:station:SCCF:16:1,2009-01-01T10:00:00Z,26.4345,-81.9647,2.333,34.91,1111122 
SCCF RECON,ioos:station:SCCF:16:1,2009-01-01T11:00:00Z,26.4345,-81.9647,2.161,34.98,1111122 
SCCF RECON,ioos:station:SCCF:16:1,2009-01-01T12:00:00Z,26.4345,-81.9647,2.033,34.92,1111122 
SCCF RECON,ioos:station:SCCF:16:1,2009-01-01T13:00:00Z,26.4345,-81.9647,1.935,34.34,1111122 
SCCF RECON,ioos:station:SCCF:16:1,2009-01-01T14:00:00Z,26.4345,-81.9647,1.874,34.14,1111122 
SCCF RECON,ioos:station:SCCF:16:1,2009-01-01T15:00:00Z,26.4345,-81.9647,1.935,33.77,1111122 
SCCF RECON,ioos:station:SCCF:16:1,2009-01-01T16:00:00Z,26.4345,-81.9647,2.107,32.98,1111122 
SCCF RECON,ioos:station:SCCF:16:1,2009-01-01T17:00:00Z,26.4345,-81.9647,2.277,34.08,1111122 
SCCF RECON,ioos:station:SCCF:16:1,2009-01-01T18:00:00Z,26.4345,-81.9647,2.424,34.16,1111122 
SCCF RECON,ioos:station:SCCF:16:1,2009-01-01T19:00:00Z,26.4345,-81.9647,2.498,34.29,1111122 
SCCF RECON,ioos:station:SCCF:16:1,2009-01-01T20:00:00Z,26.4345,-81.9647,2.549,34.8,1111122 
SCCF RECON,ioos:station:SCCF:16:1,2009-01-01T21:00:00Z,26.4345,-81.9647,2.589,34.98,1111122 
SCCF RECON,ioos:station:SCCF:16:1,2009-01-01T22:00:00Z,26.4345,-81.9647,2.612,35.07,1111122 
SCCF RECON,ioos:station:SCCF:16:1,2009-01-01T23:00:00Z,26.4345,-81.9647,2.531,35.09,1111122 
SCCF RECON,ioos:station:SCCF:16:1,2009-01-02T00:00:00Z,26.4345,-81.9647,2.413,35.06,1111122 
SCCF RECON,ioos:station:SCCF:16:1,2009-01-02T01:00:00Z,26.4345,-81.9647,2.331,35.01,1111122 
SCCF RECON,ioos:station:SCCF:16:1,2009-01-02T02:00:00Z,26.4345,-81.9647,2.26,34.89,1111122 
SCCF RECON,ioos:station:SCCF:16:1,2009-01-02T03:00:00Z,26.4345,-81.9647,2.223,34.81,1111122 
SCCF RECON,ioos:station:SCCF:16:1,2009-01-02T04:00:00Z,26.4345,-81.9647,2.288,34.75,1111122 
SCCF RECON,ioos:station:SCCF:16:1,2009-01-02T05:00:00Z,26.4345,-81.9647,2.373,34.79,1111122 
SCCF RECON,ioos:station:SCCF:16:1,2009-01-02T06:00:00Z,26.4345,-81.9647,2.498,34.96,1111122 
SCCF RECON,ioos:station:SCCF:16:1,2009-01-02T07:00:00Z,26.4345,-81.9647,2.551,35.1,1111122 
SCCF RECON,ioos:station:SCCF:16:1,2009-01-02T08:00:00Z,26.4345,-81.9647,2.621,35.38,1111122 
SCCF RECON,ioos:station:SCCF:16:1,2009-01-02T09:00:00Z,26.4345,-81.9647,2.625,35.32,1111122 
SCCF RECON,ioos:station:SCCF:16:1,2009-01-02T10:00:00Z,26.4345,-81.9647,2.548,35.28,1111122 
SCCF RECON,ioos:station:SCCF:16:1,2009-01-02T11:00:00Z,26.4345,-81.9647,2.442,35.25,1111122 
SCCF RECON,ioos:station:SCCF:16:1,2009-01-02T12:00:00Z,26.4345,-81.9647,2.325,35.25,1111122 
SCCF RECON,ioos:station:SCCF:16:1,2009-01-02T13:00:00Z,26.4345,-81.9647,2.231,35.26,1111122 
SCCF RECON,ioos:station:SCCF:16:1,2009-01-02T14:00:00Z,26.4345,-81.9647,2.172,35.08,1111122 
SCCF RECON,ioos:station:SCCF:16:1,2009-01-02T15:00:00Z,26.4345,-81.9647,2.129,34.97,1111122 
SCCF RECON,ioos:station:SCCF:16:1,2009-01-02T16:00:00Z,26.4345,-81.9647,2.162,34.63,1111122 
SCCF RECON,ioos:station:SCCF:16:1,2009-01-02T17:00:00Z,26.4345,-81.9647,2.286,34.5,1111122 
SCCF RECON,ioos:station:SCCF:16:1,2009-01-02T18:00:00Z,26.4345,-81.9647,2.44,34.62,1111122 
SCCF RECON,ioos:station:SCCF:16:1,2009-01-02T19:00:00Z,26.4345,-81.9647,2.533,35.02,1111122 
SCCF RECON,ioos:station:SCCF:16:1,2009-01-02T20:00:00Z,26.4345,-81.9647,2.576,35.17,1111122 
SCCF RECON,ioos:station:SCCF:16:1,2009-01-02T21:00:00Z,26.4345,-81.9647,2.61,35.22,1111122 
SCCF RECON,ioos:station:SCCF:16:1,2009-01-02T22:00:00Z,26.4345,-81.9647,2.611,35.23,1111122 
SCCF RECON,ioos:station:SCCF:16:1,2009-01-02T23:00:00Z,26.4345,-81.9647,2.549,35.23,1111122 
SCCF RECON,ioos:station:SCCF:16:1,2009-01-03T00:00:00Z,26.4345,-81.9647,2.471,35.22,1111122 
SCCF RECON,ioos:station:SCCF:16:1,2009-01-03T01:00:00Z,26.4345,-81.9647,2.373,35.19,1111122 
SCCF RECON,ioos:station:SCCF:16:1,2009-01-03T02:00:00Z,26.4345,-81.9647,2.296,35.2,1111122 
SCCF RECON,ioos:station:SCCF:16:1,2009-01-03T03:00:00Z,26.4345,-81.9647,2.224,35.14,1111122 
SCCF RECON,ioos:station:SCCF:16:1,2009-01-03T04:00:00Z,26.4345,-81.9647,2.217,34.97,1111122 
SCCF RECON,ioos:station:SCCF:16:1,2009-01-03T05:00:00Z,26.4345,-81.9647,2.284,34.84,1111122 
SCCF RECON,ioos:station:SCCF:16:1,2009-01-03T06:00:00Z,26.4345,-81.9647,2.372,34.8,1111122 
SCCF RECON,ioos:station:SCCF:16:1,2009-01-03T07:00:00Z,26.4345,-81.9647,2.46,34.94,1111122 
SCCF RECON,ioos:station:SCCF:16:1,2009-01-03T08:00:00Z,26.4345,-81.9647,2.523,34.88,1111122 
SCCF RECON,ioos:station:SCCF:16:1,2009-01-03T09:00:00Z,26.4345,-81.9647,2.558,34.96,1111122 
SCCF RECON,ioos:station:SCCF:16:1,2009-01-03T10:00:00Z,26.4345,-81.9647,2.555,35.17,1111122 
SCCF RECON,ioos:station:SCCF:16:1,2009-01-03T11:00:00Z,26.4345,-81.9647,2.492,35.2,1111122 
SCCF RECON,ioos:station:SCCF:16:1,2009-01-03T12:00:00Z,26.4345,-81.9647,2.436,35.19,1111122 
SCCF RECON,ioos:station:SCCF:16:1,2009-01-03T13:00:00Z,26.4345,-81.9647,2.35,35.16,1111122 
SCCF RECON,ioos:station:SCCF:16:1,2009-01-03T14:00:00Z,26.4345,-81.9647,2.273,35.03,1111122 
SCCF RECON,ioos:station:SCCF:16:1,2009-01-03T15:00:00Z,26.4345,-81.9647,2.215,34.9,1111122 
SCCF RECON,ioos:station:SCCF:16:1,2009-01-03T16:00:00Z,26.4345,-81.9647,2.229,34.84,1111122 
SCCF RECON,ioos:station:SCCF:16:1,2009-01-03T17:00:00Z,26.4345,-81.9647,2.269,34.84,1111122 
SCCF RECON,ioos:station:SCCF:16:1,2009-01-03T18:00:00Z,26.4345,-81.9647,2.393,34.86,1111122 
SCCF RECON,ioos:station:SCCF:16:1,2009-01-03T19:00:00Z,26.4345,-81.9647,2.517,34.93,1111122 
SCCF RECON,ioos:station:SCCF:16:1,2009-01-03T20:00:00Z,26.4345,-81.9647,2.587,35.04,1111122 
SCCF RECON,ioos:station:SCCF:16:1,2009-01-03T21:00:00Z,26.4345,-81.9647,2.66,35.11,1111122 
SCCF RECON,ioos:station:SCCF:16:1,2009-01-03T22:00:00Z,26.4345,-81.9647,2.689,35.17,1111122 
SCCF RECON,ioos:station:SCCF:16:1,2009-01-03T23:00:00Z,26.4345,-81.9647,2.663,35.2,1111122 
SCCF RECON,ioos:station:SCCF:16:1,2009-01-04T00:00:00Z,26.4345,-81.9647,2.579,35.21,1111122 
SCCF RECON,ioos:station:SCCF:16:1,2009-01-04T01:00:00Z,26.4345,-81.9647,2.462,35.2,1111122 
SCCF RECON,ioos:station:SCCF:16:1,2009-01-04T02:00:00Z,26.4345,-81.9647,2.342,35.12,1111122 
SCCF RECON,ioos:station:SCCF:16:1,2009-01-04T03:00:00Z,26.4345,-81.9647,2.255,35.07,1111122 
SCCF RECON,ioos:station:SCCF:16:1,2009-01-04T04:00:00Z,26.4345,-81.9647,2.179,34.99,1111122 
SCCF RECON,ioos:station:SCCF:16:1,2009-01-04T05:00:00Z,26.4345,-81.9647,2.144,34.86,1111122 
SCCF RECON,ioos:station:SCCF:16:1,2009-01-04T06:00:00Z,26.4345,-81.9647,2.175,34.79,1111122 
SCCF RECON,ioos:station:SCCF:16:1,2009-01-04T07:00:00Z,26.4345,-81.9647,2.246,34.84,1111122 
SCCF RECON,ioos:station:SCCF:16:1,2009-01-04T08:00:00Z,26.4345,-81.9647,2.345,34.84,1111122 
SCCF RECON,ioos:station:SCCF:16:1,2009-01-04T09:00:00Z,26.4345,-81.9647,2.414,34.84,1111122 
SCCF RECON,ioos:station:SCCF:16:1,2009-01-04T10:00:00Z,26.4345,-81.9647,2.47,34.88,1111122 
SCCF RECON,ioos:station:SCCF:16:1,2009-01-04T11:00:00Z,26.4345,-81.9647,2.491,35.01,1111122 
SCCF RECON,ioos:station:SCCF:16:1,2009-01-04T12:00:00Z,26.4345,-81.9647,2.46,35.04,1111122 
SCCF RECON,ioos:station:SCCF:16:1,2009-01-04T13:00:00Z,26.4345,-81.9647,2.42,35.03,1111122 
SCCF RECON,ioos:station:SCCF:16:1,2009-01-04T14:00:00Z,26.4345,-81.9647,2.344,34.99,1111122 
SCCF RECON,ioos:station:SCCF:16:1,2009-01-04T15:00:00Z,26.4345,-81.9647,2.294,34.96,1111122 
SCCF RECON,ioos:station:SCCF:16:1,2009-01-04T16:00:00Z,26.4345,-81.9647,2.29,34.95,1111122 
SCCF RECON,ioos:station:SCCF:16:1,2009-01-04T17:00:00Z,26.4345,-81.9647,2.281,34.84,1111122 
SCCF RECON,ioos:station:SCCF:16:1,2009-01-04T18:00:00Z,26.4345,-81.9647,2.312,34.85,1111122 
SCCF RECON,ioos:station:SCCF:16:1,2009-01-04T19:00:00Z,26.4345,-81.9647,2.4,34.94,1111122 
SCCF RECON,ioos:station:SCCF:16:1,2009-01-04T20:00:00Z,26.4345,-81.9647,2.515,34.95,1111122 
SCCF RECON,ioos:station:SCCF:16:1,2009-01-04T21:00:00Z,26.4345,-81.9647,2.617,35.02,1111122 
SCCF RECON,ioos:station:SCCF:16:1,2009-01-04T22:00:00Z,26.4345,-81.9647,2.682,35.12,1111122 
SCCF RECON,ioos:station:SCCF:16:1,2009-01-04T23:00:00Z,26.4345,-81.9647,2.682,35.17,1111122 
SCCF RECON,ioos:station:SCCF:16:1,2009-01-05T00:00:00Z,26.4345,-81.9647,2.616,35.2,1111122 
SCCF RECON,ioos:station:SCCF:16:1,2009-01-05T01:00:00Z,26.4345,-81.9647,2.504,35.18,1111122 
SCCF RECON,ioos:station:SCCF:16:1,2009-01-05T02:00:00Z,26.4345,-81.9647,2.343,35.13,1111122 
SCCF RECON,ioos:station:SCCF:16:1,2009-01-05T03:00:00Z,26.4345,-81.9647,2.24,35.03,1111122 
SCCF RECON,ioos:station:SCCF:16:1,2009-01-05T04:00:00Z,26.4345,-81.9647,2.122,34.91,1111122 
SCCF RECON,ioos:station:SCCF:16:1,2009-01-05T05:00:00Z,26.4345,-81.9647,2.016,34.84,1111122 
SCCF RECON,ioos:station:SCCF:16:1,2009-01-05T06:00:00Z,26.4345,-81.9647,1.976,34.8,1111122 
SCCF RECON,ioos:station:SCCF:16:1,2009-01-05T07:00:00Z,26.4345,-81.9647,1.996,34.82,1111122 
SCCF RECON,ioos:station:SCCF:16:1,2009-01-05T08:00:00Z,26.4345,-81.9647,2.111,34.54,1111122 
SCCF RECON,ioos:station:SCCF:16:1,2009-01-05T09:00:00Z,26.4345,-81.9647,2.211,34.65,1111122 
SCCF RECON,ioos:station:SCCF:16:1,2009-01-05T10:00:00Z,26.4345,-81.9647,2.311,34.73,1111122 
SCCF RECON,ioos:station:SCCF:16:1,2009-01-05T11:00:00Z,26.4345,-81.9647,2.373,34.81,1111122 
SCCF RECON,ioos:station:SCCF:16:1,2009-01-05T12:00:00Z,26.4345,-81.9647,2.416,34.88,1111122 
SCCF RECON,ioos:station:SCCF:16:1,2009-01-05T13:00:00Z,26.4345,-81.9647,2.413,34.92,1111122 
SCCF RECON,ioos:station:SCCF:16:1,2009-01-05T14:00:00Z,26.4345,-81.9647,2.4,34.91,1111122 
SCCF RECON,ioos:station:SCCF:16:1,2009-01-05T15:00:00Z,26.4345,-81.9647,2.383,34.91,1111122 
SCCF RECON,ioos:station:SCCF:16:1,2009-01-05T16:00:00Z,26.4345,-81.9647,2.36,34.93,1111122 
SCCF RECON,ioos:station:SCCF:16:1,2009-01-05T17:00:00Z,26.4345,-81.9647,2.327,34.91,1111122 
SCCF RECON,ioos:station:SCCF:16:1,2009-01-05T18:00:00Z,26.4345,-81.9647,2.349,34.99,1111122 
SCCF RECON,ioos:station:SCCF:16:1,2009-01-05T19:00:00Z,26.4345,-81.9647,2.392,35.0,1111122 
SCCF RECON,ioos:station:SCCF:16:1,2009-01-05T20:00:00Z,26.4345,-81.9647,2.475,34.97,1111122 
SCCF RECON,ioos:station:SCCF:16:1,2009-01-05T21:00:00Z,26.4345,-81.9647,2.598,35.07,1111122 
SCCF RECON,ioos:station:SCCF:16:1,2009-01-05T22:00:00Z,26.4345,-81.9647,2.668,35.18,1111122 
SCCF RECON,ioos:station:SCCF:16:1,2009-01-05T23:00:00Z,26.4345,-81.9647,2.694,35.21,1111122 
SCCF RECON,ioos:station:SCCF:16:1,2009-01-06T00:00:00Z,26.4345,-81.9647,2.69,35.25,1111122 
SCCF RECON,ioos:station:SCCF:16:1,2009-01-06T01:00:00Z,26.4345,-81.9647,2.64,35.28,1111122 
SCCF RECON,ioos:station:SCCF:16:1,2009-01-06T02:00:00Z,26.4345,-81.9647,2.52,35.27,1111122 
SCCF RECON,ioos:station:SCCF:16:1,2009-01-06T03:00:00Z,26.4345,-81.9647,2.398,35.22,1111122 
SCCF RECON,ioos:station:SCCF:16:1,2009-01-06T04:00:00Z,26.4345,-81.9647,2.216,35.14,1111122 
SCCF RECON,ioos:station:SCCF:16:1,2009-01-06T05:00:00Z,26.4345,-81.9647,2.083,34.97,1111122 
SCCF RECON,ioos:station:SCCF:16:1,2009-01-06T06:00:00Z,26.4345,-81.9647,1.938,34.85,1111122 
SCCF RECON,ioos:station:SCCF:16:1,2009-01-06T07:00:00Z,26.4345,-81.9647,1.856,34.87,1111122 
SCCF RECON,ioos:station:SCCF:16:1,2009-01-06T08:00:00Z,26.4345,-81.9647,1.906,34.61,1111122 
SCCF RECON,ioos:station:SCCF:16:1,2009-01-06T09:00:00Z,26.4345,-81.9647,2.043,34.34,1111122 
SCCF RECON,ioos:station:SCCF:16:1,2009-01-06T10:00:00Z,26.4345,-81.9647,2.191,34.45,1111122 
SCCF RECON,ioos:station:SCCF:16:1,2009-01-06T11:00:00Z,26.4345,-81.9647,2.284,34.91,1111122 
SCCF RECON,ioos:station:SCCF:16:1,2009-01-06T12:00:00Z,26.4345,-81.9647,2.348,34.92,1111122 
SCCF RECON,ioos:station:SCCF:16:1,2009-01-06T13:00:00Z,26.4345,-81.9647,2.417,35.05,1111122 
SCCF RECON,ioos:station:SCCF:16:1,2009-01-06T14:00:00Z,26.4345,-81.9647,2.451,35.02,1111122 
SCCF RECON,ioos:station:SCCF:16:1,2009-01-06T15:00:00Z,26.4345,-81.9647,2.463,35.01,1111122 
SCCF RECON,ioos:station:SCCF:16:1,2009-01-06T16:00:00Z,26.4345,-81.9647,2.45,35.0,1111122 
SCCF RECON,ioos:station:SCCF:16:1,2009-01-06T17:00:00Z,26.4345,-81.9647,2.415,34.94,1111122 
SCCF RECON,ioos:station:SCCF:16:1,2009-01-06T18:00:00Z,26.4345,-81.9647,2.396,34.89,1111122 
SCCF RECON,ioos:station:SCCF:16:1,2009-01-06T19:00:00Z,26.4345,-81.9647,2.385,34.91,1111122 
SCCF RECON,ioos:station:SCCF:16:1,2009-01-06T20:00:00Z,26.4345,-81.9647,2.45,34.99,1111122 
SCCF RECON,ioos:station:SCCF:16:1,2009-01-06T21:00:00Z,26.4345,-81.9647,2.564,35.13,1111122 
SCCF RECON,ioos:station:SCCF:16:1,2009-01-06T22:00:00Z,26.4345,-81.9647,2.632,35.09,1111122 
SCCF RECON,ioos:station:SCCF:16:1,2009-01-06T23:00:00Z,26.4345,-81.9647,2.7,35.12,1111122 
SCCF RECON,ioos:station:SCCF:16:1,2009-01-07T00:00:00Z,26.4345,-81.9647,2.719,35.28,1111122 
SCCF RECON,ioos:station:SCCF:16:1,2009-01-07T01:00:00Z,26.4345,-81.9647,2.703,35.29,1111122 
SCCF RECON,ioos:station:SCCF:16:1,2009-01-07T02:00:00Z,26.4345,-81.9647,2.701,35.29,1111122 
SCCF RECON,ioos:station:SCCF:16:1,2009-01-07T03:00:00Z,26.4345,-81.9647,2.59,35.28,1111122 
SCCF RECON,ioos:station:SCCF:16:1,2009-01-07T04:00:00Z,26.4345,-81.9647,2.432,35.26,1111122 
SCCF RECON,ioos:station:SCCF:16:1,2009-01-07T05:00:00Z,26.4345,-81.9647,2.258,35.18,1111122 
SCCF RECON,ioos:station:SCCF:16:1,2009-01-07T06:00:00Z,26.4345,-81.9647,2.068,35.09,1111122 
SCCF RECON,ioos:station:SCCF:16:1,2009-01-07T07:00:00Z,26.4345,-81.9647,1.873,34.95,1111122 
SCCF RECON,ioos:station:SCCF:16:1,2009-01-07T08:00:00Z,26.4345,-81.9647,1.794,34.87,1111122 
SCCF RECON,ioos:station:SCCF:16:1,2009-01-07T09:00:00Z,26.4345,-81.9647,1.849,34.79,1111122 
SCCF RECON,ioos:station:SCCF:16:1,2009-01-07T10:00:00Z,26.4345,-81.9647,2.038,34.94,1111122 
SCCF RECON,ioos:station:SCCF:16:1,2009-01-07T11:00:00Z,26.4345,-81.9647,2.174,35.12,1111122 
SCCF RECON,ioos:station:SCCF:16:1,2009-01-07T12:00:00Z,26.4345,-81.9647,2.257,35.31,1111122 
SCCF RECON,ioos:station:SCCF:16:1,2009-01-07T13:00:00Z,26.4345,-81.9647,2.418,35.3,1111122 
SCCF RECON,ioos:station:SCCF:16:1,2009-01-07T14:00:00Z,26.4345,-81.9647,2.515,35.21,1111122 
SCCF RECON,ioos:station:SCCF:16:1,2009-01-07T15:00:00Z,26.4345,-81.9647,2.547,35.09,1111122 
SCCF RECON,ioos:station:SCCF:16:1,2009-01-07T16:00:00Z,26.4345,-81.9647,2.547,35.0,1111122 
SCCF RECON,ioos:station:SCCF:16:1,2009-01-07T17:00:00Z,26.4345,-81.9647,2.484,34.97,1111122 
SCCF RECON,ioos:station:SCCF:16:1,2009-01-07T18:00:00Z,26.4345,-81.9647,2.447,34.94,1111122 
SCCF RECON,ioos:station:SCCF:16:1,2009-01-07T19:00:00Z,26.4345,-81.9647,2.418,34.97,1111122 
SCCF RECON,ioos:station:SCCF:16:1,2009-01-07T20:00:00Z,26.4345,-81.9647,2.427,34.99,1111122 
SCCF RECON,ioos:station:SCCF:16:1,2009-01-07T21:00:00Z,26.4345,-81.9647,2.363,35.06,1111122 
SCCF RECON,ioos:station:SCCF:16:1,2009-01-07T22:00:00Z,26.4345,-81.9647,2.392,35.16,1111122 
SCCF RECON,ioos:station:SCCF:16:1,2009-01-07T23:00:00Z,26.4345,-81.9647,2.443,35.2,1111122 
SCCF RECON,ioos:station:SCCF:16:1,2009-01-08T00:00:00Z,26.4345,-81.9647,2.527,35.26,1111122 
SCCF RECON,ioos:station:SCCF:16:1,2009-01-08T01:00:00Z,26.4345,-81.9647,2.567,35.3,1111122 
SCCF RECON,ioos:station:SCCF:16:1,2009-01-08T02:00:00Z,26.4345,-81.9647,2.604,35.31,1111122 
SCCF RECON,ioos:station:SCCF:16:1,2009-01-08T03:00:00Z,26.4345,-81.9647,2.616,35.33,1111122 
SCCF RECON,ioos:station:SCCF:16:1,2009-01-08T04:00:00Z,26.4345,-81.9647,2.448,35.27,1111122 
SCCF RECON,ioos:station:SCCF:16:1,2009-01-08T05:00:00Z,26.4345,-81.9647,2.164,35.07,1111122 
SCCF RECON,ioos:station:SCCF:16:1,2009-01-08T06:00:00Z,26.4345,-81.9647,1.964,35.14,1111122 
SCCF RECON,ioos:station:SCCF:16:1,2009-01-08T07:00:00Z,26.4345,-81.9647,1.768,35.07,1111122 
SCCF RECON,ioos:station:SCCF:16:1,2009-01-08T08:00:00Z,26.4345,-81.9647,1.64,35.16,1111122 
SCCF RECON,ioos:station:SCCF:16:1,2009-01-08T09:00:00Z,26.4345,-81.9647,1.598,34.74,1111122 
SCCF RECON,ioos:station:SCCF:16:1,2009-01-08T10:00:00Z,26.4345,-81.9647,1.667,34.6,1111122 
SCCF RECON,ioos:station:SCCF:16:1,2009-01-08T11:00:00Z,26.4345,-81.9647,1.83,34.66,1111122 
SCCF RECON,ioos:station:SCCF:16:1,2009-01-08T12:00:00Z,26.4345,-81.9647,2.04,34.65,1111122 
SCCF RECON,ioos:station:SCCF:16:1,2009-01-08T13:00:00Z,26.4345,-81.9647,2.229,34.97,1111122 
SCCF RECON,ioos:station:SCCF:16:1,2009-01-08T14:00:00Z,26.4345,-81.9647,2.364,35.06,1111122 
SCCF RECON,ioos:station:SCCF:16:1,2009-01-08T15:00:00Z,26.4345,-81.9647,2.507,35.25,1111122 
SCCF RECON,ioos:station:SCCF:16:1,2009-01-08T16:00:00Z,26.4345,-81.9647,2.555,35.35,1111122 
SCCF RECON,ioos:station:SCCF:16:1,2009-01-08T17:00:00Z,26.4345,-81.9647,2.502,35.35,1111122 
SCCF RECON,ioos:station:SCCF:16:1,2009-01-08T18:00:00Z,26.4345,-81.9647,2.417,35.35,1111122 
SCCF RECON,ioos:station:SCCF:16:1,2009-01-08T19:00:00Z,26.4345,-81.9647,2.367,35.32,1111122 
SCCF RECON,ioos:station:SCCF:16:1,2009-01-08T20:00:00Z,26.4345,-81.9647,2.366,35.28,1111122 
SCCF RECON,ioos:station:SCCF:16:1,2009-01-08T21:00:00Z,26.4345,-81.9647,2.371,35.28,1111122 
SCCF RECON,ioos:station:SCCF:16:1,2009-01-08T22:00:00Z,26.4345,-81.9647,2.458,35.4,1111122 
SCCF RECON,ioos:station:SCCF:16:1,2009-01-08T23:00:00Z,26.4345,-81.9647,2.546,35.43,1111122 
SCCF RECON,ioos:station:SCCF:16:1,2009-01-09T00:00:00Z,26.4345,-81.9647,2.609,35.46,1111122 
SCCF RECON,ioos:station:SCCF:16:1,2009-01-09T01:00:00Z,26.4345,-81.9647,2.648,35.46,1111122 
SCCF RECON,ioos:station:SCCF:16:1,2009-01-09T02:00:00Z,26.4345,-81.9647,2.714,35.47,1111122 
SCCF RECON,ioos:station:SCCF:16:1,2009-01-09T03:00:00Z,26.4345,-81.9647,2.72,35.47,1111122 
SCCF RECON,ioos:station:SCCF:16:1,2009-01-09T04:00:00Z,26.4345,-81.9647,2.664,35.47,1111122 
SCCF RECON,ioos:station:SCCF:16:1,2009-01-09T05:00:00Z,26.4345,-81.9647,2.482,35.46,1111122 
SCCF RECON,ioos:station:SCCF:16:1,2009-01-09T06:00:00Z,26.4345,-81.9647,2.196,35.4,1111122 
SCCF RECON,ioos:station:SCCF:16:1,2009-01-09T07:00:00Z,26.4345,-81.9647,1.945,35.12,1111122 
SCCF RECON,ioos:station:SCCF:16:1,2009-01-09T08:00:00Z,26.4345,-81.9647,1.734,34.88,1111122 
SCCF RECON,ioos:station:SCCF:16:1,2009-01-09T09:00:00Z,26.4345,-81.9647,1.53,34.66,1111122 
SCCF RECON,ioos:station:SCCF:16:1,2009-01-09T10:00:00Z,26.4345,-81.9647,1.452,34.55,1111122 
SCCF RECON,ioos:station:SCCF:16:1,2009-01-09T11:00:00Z,26.4345,-81.9647,1.589,34.5,1111122 
SCCF RECON,ioos:station:SCCF:16:1,2009-01-09T12:00:00Z,26.4345,-81.9647,1.808,34.27,1111122 
SCCF RECON,ioos:station:SCCF:16:1,2009-01-09T13:00:00Z,26.4345,-81.9647,2.009,34.01,1111122 
SCCF RECON,ioos:station:SCCF:16:1,2009-01-09T14:00:00Z,26.4345,-81.9647,2.169,34.67,1111122 
SCCF RECON,ioos:station:SCCF:16:1,2009-01-09T15:00:00Z,26.4345,-81.9647,2.332,35.13,1111122 
SCCF RECON,ioos:station:SCCF:16:1,2009-01-09T16:00:00Z,26.4345,-81.9647,2.458,35.28,1111122 
SCCF RECON,ioos:station:SCCF:16:1,2009-01-09T17:00:00Z,26.4345,-81.9647,2.468,35.28,1111122 
SCCF RECON,ioos:station:SCCF:16:1,2009-01-09T18:00:00Z,26.4345,-81.9647,2.377,35.35,1111122 
SCCF RECON,ioos:station:SCCF:16:1,2009-01-09T19:00:00Z,26.4345,-81.9647,2.304,35.2,1111122 
SCCF RECON,ioos:station:SCCF:16:1,2009-01-09T20:00:00Z,26.4345,-81.9647,2.311,35.27,1111122 
SCCF RECON,ioos:station:SCCF:16:1,2009-01-09T21:00:00Z,26.4345,-81.9647,2.322,35.17,1111122 
SCCF RECON,ioos:station:SCCF:16:1,2009-01-09T22:00:00Z,26.4345,-81.9647,2.33,34.8,1111122 
SCCF RECON,ioos:station:SCCF:16:1,2009-01-09T23:00:00Z,26.4345,-81.9647,2.415,35.3,1111122 
SCCF RECON,ioos:station:SCCF:16:1,2009-01-10T00:00:00Z,26.4345,-81.9647,2.554,35.16,1111122 
SCCF RECON,ioos:station:SCCF:16:1,2009-01-10T01:00:00Z,26.4345,-81.9647,2.677,35.05,1111122 
SCCF RECON,ioos:station:SCCF:16:1,2009-01-10T02:00:00Z,26.4345,-81.9647,2.75,35.42,1111122 
SCCF RECON,ioos:station:SCCF:16:1,2009-01-10T03:00:00Z,26.4345,-81.9647,2.806,35.41,1111122 
SCCF RECON,ioos:station:SCCF:16:1,2009-01-10T04:00:00Z,26.4345,-81.9647,2.845,35.4,1111122 
SCCF RECON,ioos:station:SCCF:16:1,2009-01-10T05:00:00Z,26.4345,-81.9647,2.754,35.38,1111122 
SCCF RECON,ioos:station:SCCF:16:1,2009-01-10T06:00:00Z,26.4345,-81.9647,2.528,35.36,1111122 
SCCF RECON,ioos:station:SCCF:16:1,2009-01-10T07:00:00Z,26.4345,-81.9647,2.258,35.32,1111122 
SCCF RECON,ioos:station:SCCF:16:1,2009-01-10T08:00:00Z,26.4345,-81.9647,2.034,35.21,1111122 
SCCF RECON,ioos:station:SCCF:16:1,2009-01-10T09:00:00Z,26.4345,-81.9647,1.77,34.97,1111122 
SCCF RECON,ioos:station:SCCF:16:1,2009-01-10T10:00:00Z,26.4345,-81.9647,1.549,34.85,1111122 
SCCF RECON,ioos:station:SCCF:16:1,2009-01-10T11:00:00Z,26.4345,-81.9647,1.484,34.48,1111122 
SCCF RECON,ioos:station:SCCF:16:1,2009-01-10T12:00:00Z,26.4345,-81.9647,1.645,34.54,1111122 
SCCF RECON,ioos:station:SCCF:16:1,2009-01-10T13:00:00Z,26.4345,-81.9647,1.952,34.16,1111122 
SCCF RECON,ioos:station:SCCF:16:1,2009-01-10T14:00:00Z,26.4345,-81.9647,2.171,34.31,1111122 
SCCF RECON,ioos:station:SCCF:16:1,2009-01-10T15:00:00Z,26.4345,-81.9647,2.329,34.52,1111122 
SCCF RECON,ioos:station:SCCF:16:1,2009-01-10T16:00:00Z,26.4345,-81.9647,2.452,34.79,1111122 
SCCF RECON,ioos:station:SCCF:16:1,2009-01-10T17:00:00Z,26.4345,-81.9647,2.526,34.89,1111122 
SCCF RECON,ioos:station:SCCF:16:1,2009-01-10T18:00:00Z,26.4345,-81.9647,2.511,35.01,1111122 
SCCF RECON,ioos:station:SCCF:16:1,2009-01-10T19:00:00Z,26.4345,-81.9647,2.42,34.88,1111122 
SCCF RECON,ioos:station:SCCF:16:1,2009-01-10T20:00:00Z,26.4345,-81.9647,2.371,34.75,1111122 
SCCF RECON,ioos:station:SCCF:16:1,2009-01-10T21:00:00Z,26.4345,-81.9647,2.378,34.7,1111122 
SCCF RECON,ioos:station:SCCF:16:1,2009-01-10T22:00:00Z,26.4345,-81.9647,2.373,34.71,1111122 
SCCF RECON,ioos:station:SCCF:16:1,2009-01-10T23:00:00Z,26.4345,-81.9647,2.363,34.76,1111122 
SCCF RECON,ioos:station:SCCF:16:1,2009-01-11T00:00:00Z,26.4345,-81.9647,2.46,34.78,1111122 
SCCF RECON,ioos:station:SCCF:16:1,2009-01-11T01:00:00Z,26.4345,-81.9647,2.587,34.89,1111122 
SCCF RECON,ioos:station:SCCF:16:1,2009-01-11T02:00:00Z,26.4345,-81.9647,2.757,35.02,1111122 
SCCF RECON,ioos:station:SCCF:16:1,2009-01-11T03:00:00Z,26.4345,-81.9647,2.857,35.26,1111122 
SCCF RECON,ioos:station:SCCF:16:1,2009-01-11T04:00:00Z,26.4345,-81.9647,2.931,35.31,1111122 
SCCF RECON,ioos:station:SCCF:16:1,2009-01-11T05:00:00Z,26.4345,-81.9647,2.913,35.34,1111122 
SCCF RECON,ioos:station:SCCF:16:1,2009-01-11T06:00:00Z,26.4345,-81.9647,2.777,35.34,1111122 
SCCF RECON,ioos:station:SCCF:16:1,2009-01-11T07:00:00Z,26.4345,-81.9647,2.555,35.27,1111122 
SCCF RECON,ioos:station:SCCF:16:1,2009-01-11T08:00:00Z,26.4345,-81.9647,2.251,35.11,1111122 
SCCF RECON,ioos:station:SCCF:16:1,2009-01-11T09:00:00Z,26.4345,-81.9647,2.006,34.99,1111122 
SCCF RECON,ioos:station:SCCF:16:1,2009-01-11T10:00:00Z,26.4345,-81.9647,1.738,35.09,1111122 
SCCF RECON,ioos:station:SCCF:16:1,2009-01-11T11:00:00Z,26.4345,-81.9647,1.542,34.7,1111122 
SCCF RECON,ioos:station:SCCF:16:1,2009-01-11T12:00:00Z,26.4345,-81.9647,1.506,35.04,1111122 
SCCF RECON,ioos:station:SCCF:16:1,2009-01-11T13:00:00Z,26.4345,-81.9647,1.722,34.79,1111122 
SCCF RECON,ioos:station:SCCF:16:1,2009-01-11T14:00:00Z,26.4345,-81.9647,2.059,35.04,1111122 
SCCF RECON,ioos:station:SCCF:16:1,2009-01-11T15:00:00Z,26.4345,-81.9647,2.256,35.28,1111122 
SCCF RECON,ioos:station:SCCF:16:1,2009-01-11T16:00:00Z,26.4345,-81.9647,2.393,35.26,1111122 